TimeEST,TemperatureF,Dew PointF,Humidity,Sea Level PressureIn,VisibilityMPH,Wind Direction,Wind SpeedMPH,Gust SpeedMPH,PrecipitationIn,Events,Conditions,WindDirDegrees,DateUTC
12:15 AM,66.2,55.4,68,29.97,10.0,NW,6.9,-,N/A,,Clear,310,2012-11-05 05:15:00
12:35 AM,64.4,55.4,73,29.96,10.0,Calm,Calm,-,N/A,,Clear,0,2012-11-05 05:35:00
12:55 AM,60.8,55.4,82,29.97,10.0,Calm,Calm,-,N/A,,Clear,0,2012-11-05 05:55:00
1:15 AM,59.0,55.4,88,29.97,10.0,Calm,Calm,-,N/A,,Clear,0,2012-11-05 06:15:00
1:35 AM,59.0,55.4,88,29.97,10.0,Calm,Calm,-,N/A,,Clear,0,2012-11-05 06:35:00
1:55 AM,57.2,55.4,94,29.97,10.0,Calm,Calm,-,N/A,,Clear,0,2012-11-05 06:55:00
2:15 AM,55.4,53.6,94,29.97,10.0,WNW,3.5,-,N/A,,Clear,290,2012-11-05 07:15:00
2:35 AM,55.4,55.4,100,29.96,10.0,Calm,Calm,-,N/A,,Clear,0,2012-11-05 07:35:00
2:55 AM,55.4,53.6,94,29.96,10.0,WNW,3.5,-,N/A,,Clear,290,2012-11-05 07:55:00
3:15 AM,55.4,53.6,94,29.96,10.0,West,3.5,-,N/A,,Clear,280,2012-11-05 08:15:00
3:35 AM,55.4,53.6,94,29.96,10.0,West,3.5,-,N/A,,Clear,280,2012-11-05 08:35:00
3:55 AM,53.6,53.6,100,29.96,10.0,Calm,Calm,-,N/A,,Clear,0,2012-11-05 08:55:00
4:15 AM,51.8,51.8,100,29.97,10.0,Calm,Calm,-,N/A,,Clear,0,2012-11-05 09:15:00
4:35 AM,53.6,53.6,100,29.97,10.0,West,4.6,-,N/A,,Clear,280,2012-11-05 09:35:00
4:55 AM,53.6,51.8,94,29.98,10.0,WNW,4.6,-,N/A,,Clear,290,2012-11-05 09:55:00
5:15 AM,55.4,50.0,82,29.98,10.0,WNW,5.8,-,N/A,,Clear,300,2012-11-05 10:15:00
5:35 AM,53.6,50.0,88,29.98,10.0,WNW,6.9,-,N/A,,Clear,300,2012-11-05 10:35:00
5:55 AM,53.6,48.2,82,29.99,10.0,WNW,6.9,-,N/A,,Clear,300,2012-11-05 10:55:00
6:15 AM,53.6,46.4,77,30.00,10.0,WNW,6.9,-,N/A,,Clear,300,2012-11-05 11:15:00
6:35 AM,51.8,46.4,82,30.00,10.0,NW,3.5,-,N/A,,Clear,320,2012-11-05 11:35:00
6:55 AM,51.8,46.4,82,30.01,10.0,Calm,Calm,-,N/A,,Clear,0,2012-11-05 11:55:00
7:35 AM,50.0,48.2,94,30.02,10.0,Calm,Calm,-,N/A,,Clear,0,2012-11-05 12:35:00
7:55 AM,51.8,48.2,88,30.02,10.0,NNW,4.6,-,N/A,,Scattered Clouds,330,2012-11-05 12:55:00
8:15 AM,53.6,48.2,82,30.03,10.0,North,3.5,-,N/A,,Overcast,350,2012-11-05 13:15:00
8:35 AM,53.6,50.0,88,30.04,10.0,North,4.6,-,N/A,,Overcast,10,2012-11-05 13:35:00
8:55 AM,55.4,50.0,82,30.04,10.0,NNE,5.8,-,N/A,,Mostly Cloudy,30,2012-11-05 13:55:00
9:15 AM,55.4,50.0,82,30.05,10.0,NE,9.2,-,N/A,,Scattered Clouds,50,2012-11-05 14:15:00
9:35 AM,59.0,50.0,72,30.05,10.0,East,8.1,-,N/A,,Scattered Clouds,80,2012-11-05 14:35:00
9:55 AM,60.8,50.0,68,30.04,10.0,ENE,8.1,-,N/A,,Scattered Clouds,60,2012-11-05 14:55:00
10:35 AM,62.6,50.0,63,30.05,10.0,ENE,9.2,-,N/A,,Clear,70,2012-11-05 15:35:00
10:55 AM,62.6,48.2,59,30.05,10.0,NE,8.1,-,N/A,,Clear,50,2012-11-05 15:55:00
11:15 AM,62.6,48.2,59,30.05,10.0,ENE,5.8,-,N/A,,Clear,70,2012-11-05 16:15:00
11:35 AM,64.4,48.2,56,30.04,10.0,East,5.8,-,N/A,,Clear,80,2012-11-05 16:35:00
11:55 AM,64.4,48.2,56,30.03,10.0,East,4.6,-,N/A,,Clear,80,2012-11-05 16:55:00
12:35 PM,64.4,48.2,56,30.02,10.0,NE,3.5,-,N/A,,Clear,50,2012-11-05 17:35:00
12:55 PM,66.2,48.2,52,30.01,10.0,NE,4.6,-,N/A,,Clear,40,2012-11-05 17:55:00
1:15 PM,66.2,48.2,52,30.00,10.0,North,6.9,-,N/A,,Clear,350,2012-11-05 18:15:00
1:35 PM,68.0,46.4,46,30.00,10.0,NNE,4.6,-,N/A,,Clear,20,2012-11-05 18:35:00
1:55 PM,68.0,46.4,46,30.00,10.0,ENE,6.9,-,N/A,,Clear,60,2012-11-05 18:55:00
2:15 PM,68.0,46.4,46,29.99,10.0,NNW,5.8,-,N/A,,Clear,330,2012-11-05 19:15:00
2:35 PM,68.0,46.4,46,29.99,10.0,North,3.5,-,N/A,,Clear,350,2012-11-05 19:35:00
2:55 PM,68.0,46.4,46,29.98,10.0,ENE,5.8,-,N/A,,Clear,70,2012-11-05 19:55:00
3:35 PM,68.0,46.4,46,29.98,10.0,East,5.8,-,N/A,,Clear,80,2012-11-05 20:35:00
3:55 PM,68.0,44.6,43,29.98,10.0,ENE,5.8,-,N/A,,Clear,70,2012-11-05 20:55:00
4:15 PM,68.0,46.4,46,29.98,10.0,ENE,5.8,-,N/A,,Clear,60,2012-11-05 21:15:00
4:35 PM,66.2,46.4,49,29.98,10.0,ENE,6.9,-,N/A,,Clear,60,2012-11-05 21:35:00
4:55 PM,64.4,46.4,52,29.99,10.0,East,3.5,-,N/A,,Clear,80,2012-11-05 21:55:00
5:15 PM,62.6,48.2,59,29.99,10.0,Calm,Calm,-,N/A,,Clear,0,2012-11-05 22:15:00
5:35 PM,60.8,50.0,68,29.99,10.0,Calm,Calm,-,N/A,,Clear,0,2012-11-05 22:35:00
5:55 PM,57.2,50.0,77,30.00,10.0,Calm,Calm,-,N/A,,Clear,0,2012-11-05 22:55:00
6:15 PM,55.4,50.0,82,30.01,10.0,Calm,Calm,-,N/A,,Clear,0,2012-11-05 23:15:00
6:35 PM,53.6,50.0,88,30.02,10.0,Calm,Calm,-,N/A,,Clear,0,2012-11-05 23:35:00
6:55 PM,51.8,50.0,94,30.02,10.0,Calm,Calm,-,N/A,,Clear,0,2012-11-05 23:55:00
7:15 PM,51.8,48.2,88,30.02,10.0,Calm,Calm,-,N/A,,Clear,0,2012-11-06 00:15:00
7:35 PM,50.0,48.2,94,30.02,10.0,Calm,Calm,-,N/A,,Clear,0,2012-11-06 00:35:00
7:55 PM,50.0,48.2,94,30.02,10.0,Calm,Calm,-,N/A,,Clear,0,2012-11-06 00:55:00
8:15 PM,50.0,48.2,94,30.02,10.0,Calm,Calm,-,N/A,,Clear,0,2012-11-06 01:15:00
8:35 PM,50.0,48.2,94,30.02,10.0,Calm,Calm,-,N/A,,Clear,0,2012-11-06 01:35:00
8:55 PM,50.0,48.2,94,30.02,10.0,Calm,Calm,-,N/A,,Clear,0,2012-11-06 01:55:00
9:15 PM,51.8,50.0,94,30.02,10.0,Calm,Calm,-,N/A,,Clear,0,2012-11-06 02:15:00
9:35 PM,51.8,50.0,94,30.02,10.0,Calm,Calm,-,N/A,,Clear,0,2012-11-06 02:35:00
9:55 PM,51.8,50.0,94,30.03,10.0,Calm,Calm,-,N/A,,Clear,0,2012-11-06 02:55:00
10:15 PM,51.8,50.0,94,30.03,10.0,Calm,Calm,-,N/A,,Clear,0,2012-11-06 03:15:00
10:35 PM,50.0,50.0,100,30.02,10.0,Calm,Calm,-,N/A,,Clear,0,2012-11-06 03:35:00
10:55 PM,50.0,50.0,100,30.02,10.0,Calm,Calm,-,N/A,,Clear,0,2012-11-06 03:55:00
11:15 PM,50.0,50.0,100,30.02,10.0,Calm,Calm,-,N/A,,Clear,0,2012-11-06 04:15:00
11:35 PM,50.0,50.0,100,30.02,10.0,Calm,Calm,-,N/A,,Mostly Cloudy,0,2012-11-06 04:35:00
11:55 PM,50.0,50.0,100,30.01,10.0,Calm,Calm,-,N/A,,Mostly Cloudy,0,2012-11-06 04:55:00